Hourly Data Report for September 27, 2017

All times are specified in Local Standard Time (LST). Add 1 hour to adjust for Daylight Saving Time where and when it is observed.

BAS CARAQUET
NEW BRUNSWICK

47°48'08.000" N
64°50'00.000" W
5.00 m
8100467
71598
WXS

Download Data

Hourly Data (September 2017)
Hourly Data Report for September 27, 2017
Temp Definition
°C
Dew Point Temp Definition
°C
Rel Hum Definition
%
Wind Dir Definition
10's deg

Wind Spd Definition
km/h
Visibility Definition
km
Stn Press Definition
kPa
Hmdx Definition


Wind Chill Definition


Weather Definition


TIME
00:00 11.9 7.8 76 10 6   101.89     LegendNANA
01:00 11.7 7.9 78 7 6   101.85     LegendNANA
02:00 11.0 8.0 82 8 4   101.85     LegendNANA
03:00 11.2 8.4 83 7 7   101.79     LegendNANA
04:00 11.5 8.6 83 8 7   101.72     LegendNANA
05:00 11.6 8.8 83 7 7   101.67     LegendNANA
06:00 11.2 9.7 91 9 6   101.63     LegendNANA
07:00 11.3 10.6 95 9 8   101.57     LegendNANA
08:00 11.7 11.0 96 8 7   101.53     LegendNANA
09:00 12.7 10.9 89 13 9   101.46     LegendNANA
10:00 13.0 11.1 88 12 11   101.40     LegendNANA
11:00 12.6 11.9 96 12 8   101.35     LegendNANA
12:00 12.7 12.2 97 10 10   101.24     LegendNANA
13:00 12.7 12.3 97 10 8   101.11     LegendNANA
14:00 12.9 12.2 96 12 12   100.99     LegendNANA
15:00 13.6 12.7 94 13 10   100.88     LegendNANA
16:00 13.8 13.0 95 13 7   100.77     LegendNANA
17:00 13.8 13.4 98 13 4   100.66     LegendNANA
18:00 14.0 13.8 99 12 2   100.59     LegendNANA
19:00 14.4 14.2 99 15 4   100.53     LegendNANA
20:00 14.4 14.3 100 14 2   100.36     LegendNANA
21:00 14.6 14.6 100 13 5   100.23     LegendNANA
22:00 13.0 13.0 100 32 19   100.33     LegendNANA
23:00 13.4 13.4 100 20 7   100.26     LegendNANA

Notes on Data Quality.

Legend

  • E = Estimated
  • M = Missing
  • NA = Not Available
  • ‡ = Partner data that is not subject to review by the National Climate Archives
Date modified: